TimeCDT,TemperatureF,Dew PointF,Humidity,Sea Level PressureIn,VisibilityMPH,Wind Direction,Wind SpeedMPH,Gust SpeedMPH,PrecipitationIn,Events,Conditions,WindDirDegrees,DateUTC
12:54 AM,73.0,70.0,90,30.25,10.0,SW,4.6,-,N/A,,Clear,230,2013-07-17 05:54:00
1:54 AM,73.9,70.0,87,30.24,10.0,SW,3.5,-,N/A,,Clear,230,2013-07-17 06:54:00
2:54 AM,73.0,70.0,90,30.24,10.0,SW,5.8,-,N/A,,Clear,220,2013-07-17 07:54:00
3:54 AM,73.0,70.0,90,30.24,10.0,WSW,3.5,-,N/A,,Clear,240,2013-07-17 08:54:00
4:54 AM,72.0,70.0,93,30.25,10.0,West,3.5,-,N/A,,Clear,260,2013-07-17 09:54:00
5:54 AM,72.0,70.0,93,30.25,10.0,WSW,3.5,-,N/A,,Clear,250,2013-07-17 10:54:00
6:54 AM,73.9,71.1,91,30.26,10.0,Calm,Calm,-,N/A,,Clear,0,2013-07-17 11:54:00
7:54 AM,78.1,72.0,81,30.27,10.0,West,5.8,-,N/A,,Clear,280,2013-07-17 12:54:00
8:54 AM,82.0,73.0,74,30.27,10.0,WNW,5.8,-,N/A,,Clear,290,2013-07-17 13:54:00
9:54 AM,84.0,71.1,65,30.27,10.0,NW,6.9,-,N/A,,Clear,310,2013-07-17 14:54:00
10:54 AM,87.1,69.1,55,30.26,10.0,NW,9.2,-,N/A,,Clear,310,2013-07-17 15:54:00
11:54 AM,87.1,69.1,55,30.25,10.0,West,9.2,-,N/A,,Scattered Clouds,270,2013-07-17 16:54:00
12:54 PM,89.1,66.0,46,30.25,10.0,West,8.1,-,N/A,,Partly Cloudy,270,2013-07-17 17:54:00
1:54 PM,89.1,66.9,48,30.23,10.0,West,11.5,-,N/A,,Scattered Clouds,260,2013-07-17 18:54:00
2:54 PM,88.0,66.9,49,30.21,10.0,West,6.9,-,N/A,,Scattered Clouds,280,2013-07-17 19:54:00
3:54 PM,88.0,68.0,51,30.20,10.0,West,10.4,-,N/A,,Clear,280,2013-07-17 20:54:00
4:54 PM,89.1,66.9,48,30.19,10.0,West,10.4,-,N/A,,Clear,260,2013-07-17 21:54:00
5:54 PM,87.1,68.0,53,30.18,10.0,WSW,9.2,-,N/A,,Mostly Cloudy,240,2013-07-17 22:54:00
6:54 PM,87.1,68.0,53,30.16,10.0,West,6.9,-,N/A,,Clear,260,2013-07-17 23:54:00
7:54 PM,82.9,70.0,65,30.15,10.0,WSW,4.6,-,N/A,,Clear,240,2013-07-18 00:54:00
8:54 PM,81.0,69.1,67,30.16,10.0,WSW,5.8,-,N/A,,Clear,250,2013-07-18 01:54:00
9:54 PM,77.0,69.1,76,30.16,10.0,WSW,3.5,-,N/A,,Clear,240,2013-07-18 02:54:00
10:54 PM,75.9,68.0,76,30.16,10.0,SW,4.6,-,N/A,,Clear,230,2013-07-18 03:54:00
11:54 PM,73.9,68.0,82,30.15,10.0,SW,4.6,-,N/A,,Clear,220,2013-07-18 04:54:00